Content
SEND FEEDBACK

Daily
Averages
Monthly
Summary
United States of America

REDDING, CALIFORNIA


Home > North America > United States > California
Elevation: 535 feet     Latitude: 40 31N     Longitude: 122 18W

WEATHER
 
SELECT A DAY
Number of Records: 187,156;   Date Range: 1/1/95 - 7/23/14
 
SHARE

PRINT THIS DATA

[ ← Previous Day ]
WEATHER ALMANAC - JANUARY 16, 2013
[ Next Day → ]
[ °C ]   °F
Weather ElementAverageHighLow
Temperature48 °F71.1 °F (2:53 pm)28 °F (3:53 am)
Dewpoint21.8 °F30.9 °F (9:53 am)14 °F (6:53 pm)
Humidity48.1 %85 % (1:53 am)13 % (1:53 pm)
Barometer30.36 in30.46 in (1:53 am)30.28 in (2:53 pm)
Wind Speed6.1 mph18.4 mph (1:53 pm)
Wind Gust23 mph (1:53 pm)
Weather ElementAverage
Visibility9.3 mi
Wind DirectionENE (67 °)

Weather ElementTotal
Precipitation---
Heating Degree Days15.5 (Base 65)
Averaged from 23 records on January 16, 2013
WEATHER CONDITIONS BREAKOUT
WIND DIRECTION BREAKOUT
WEATHER BY HOUR - JANUARY 16, 2013
[ °C ]   °F
Local TimeTemperatureDewpointHumidityBarometerVisibilityWind DirectionWind SpeedGust SpeedPrecipitationEventsConditions
1:53 AM30.0 °F26.1 °F85 %30.46 in10.0 miCalmClear
2:53 AM28.9 °F25.0 °F85 %30.45 in10.0 miCalmClear
3:53 AM28.0 °F23.0 °F81 %30.44 in10.0 miNNE (30°)4.6 mphClear
4:53 AM30.0 °F25.0 °F82 %30.42 in9.0 miCalmClear
5:53 AM28.9 °F25.0 °F85 %30.41 in9.0 miCalmClear
6:53 AM28.0 °F23.0 °F81 %30.41 in8.0 miCalmClear
7:53 AM28.9 °F24.1 °F82 %30.42 in5.0 miCalmHaze
8:53 AM35.1 °F28.0 °F76 %30.44 in6.0 miCalmHaze
9:53 AM45.0 °F30.9 °F58 %30.43 in10.0 miCalmClear
10:53 AM63.0 °F19.0 °F18 %30.40 in10.0 miNorth (350°)11.5 mphClear
11:53 AM66.2 °F19.4 °F17 %30.36 in10.0 miNorth (10°)9.2 mphClear
12:53 PM69.1 °F19.0 °F15 %30.33 in10.0 miNorth (350°)9.2 mph18.4 mphClear
1:53 PM70.0 °F17.1 °F13 %30.29 in10.0 miNorth (10°)18.4 mph23.0 mphClear
2:53 PM71.1 °F17.1 °F13 %30.28 in10.0 miNNE (20°)15.0 mphClear
3:53 PM70.0 °F16.0 °F13 %30.28 in10.0 miNNE (20°)17.3 mphClear
4:53 PM66.0 °F17.1 °F15 %30.28 in10.0 miNNE (20°)17.3 mphClear
5:53 PM62.1 °F17.1 °F18 %30.29 in10.0 miNorth (10°)15.0 mphClear
6:53 PM63.0 °F14.0 °F15 %30.30 in10.0 miNorth (360°)11.5 mphClear
7:53 PM60.1 °F14.0 °F16 %30.31 in10.0 miNorth (360°)5.8 mphClear
8:53 PM50.0 °F17.1 °F27 %30.31 in10.0 miVariable4.6 mphClear
9:53 PM39.9 °F28.9 °F65 %30.31 in10.0 miCalmClear
10:53 PM37.9 °F28.0 °F68 %30.30 in10.0 miCalmClear
11:53 PM33.1 °F27.0 °F78 %30.30 in8.0 miCalmClear
Hourly data recorded from KRDD, located miles away from Redding, California







STORIES FROM OUR PARTNERS